Weather History for Lago Vista, TX

Change the Weather History Date:

Saturday, September 21, 2013

  Actual Average (KATT) Record (KATT)
Temperature  
Mean Temperature 73 °F 78 °F  
Max Temperature 82 °F 89 °F 100 °F (1926)
Min Temperature 64 °F 68 °F 50 °F (1901)
Degree Days  
Heating Degree Days 0 0  
Month to date heating degree days 0  
Since 1 July heating degree days 0  
Cooling Degree Days 8 13  
Month to date cooling degree days 341  
Year to date cooling degree days 2735  
Growing Degree Days 23 (Base 50)    
Moisture  
Dew Point 56 °F    
Average Humidity 62    
Maximum Humidity 94    
Minimum Humidity 28    
Precipitation  
Precipitation 0.00 in 0.08 in 1.27 in (1967)
Month to date precipitation 2.20  
Year to date precipitation 24.29  
Snow  
Snow 0.00 in - - ()
Month to date snowfall  
Since 1 July snowfall  
Since 1 September snowfall  
Snow Depth -    
Sea Level Pressure  
Sea Level Pressure 29.92 in    
Wind  
Wind Speed 10 mph (NNE)    
Max Wind Speed 15 mph    
Max Gust Speed 23 mph    
Visibility 10 miles    
Events Rain    
T = Trace of Precipitation, MM = Missing Value Source: NWS Daily Summary

Daily Weather History Graph

Daily Weather History Graph

Search for Another Location

Airport:

Trip Planner

Search our weather history database for the weather conditions in past years. The results will help you decide how hot, cold, wet, or windy it might be!

Date:

Astronomy

Sep. 21, 2013 Rise Set
Actual Time 7:19 AM CDT 7:29 PM CDT
Civil Twilight 6:55 AM CDT 7:53 PM CDT
Nautical Twilight 6:27 AM CDT 8:21 PM CDT
Astronomical Twilight 5:59 AM CDT 8:49 PM CDT
Moon 8:55 PM CDT (9/21) 9:27 AM CDT (9/21)
Length of Visible Light 12h 57m
Length of Day
12h 09m
Waning Gibbous, 94% of the Moon is Illuminated
Sep 21
Waning Gibbous
Sep 26
Last Quarter
Oct 4
New
Oct 11
First Quarter
Oct 18
Full

Hourly Weather History & Observations

Time (CDT) Temp. Heat Index Dew Point Humidity Pressure Visibility Wind Dir Wind Speed Gust Speed Precip Events Conditions
12:15 AM 68.0 °F - 66.2 °F 94% 29.91 in 10.0 mi North 15.0 mph 23.0 mph N/A Rain Light Rain
12:35 AM 68.0 °F - 66.2 °F 94% 29.91 in 10.0 mi NNE 9.2 mph 19.6 mph N/A   Overcast
12:55 AM 68.0 °F - 66.2 °F 94% 29.91 in 10.0 mi NE 8.1 mph 17.3 mph N/A   Overcast
1:15 AM 68.0 °F - 66.2 °F 94% 29.91 in 10.0 mi NNE 8.1 mph 16.1 mph N/A   Overcast
1:35 AM 68.0 °F - 66.2 °F 94% 29.90 in 10.0 mi NNE 8.1 mph - N/A   Overcast
1:55 AM 69.8 °F - 66.2 °F 88% 29.91 in 10.0 mi North 8.1 mph - N/A   Overcast
2:15 AM 69.8 °F - 66.2 °F 88% 29.91 in 10.0 mi North 6.9 mph - N/A   Overcast
2:35 AM 69.8 °F - 66.2 °F 88% 29.90 in 10.0 mi North 10.4 mph - N/A   Overcast
2:55 AM 69.8 °F - 66.2 °F 88% 29.90 in 10.0 mi NNE 9.2 mph - N/A   Overcast
3:15 AM 69.8 °F - 66.2 °F 88% 29.90 in 10.0 mi North 10.4 mph 16.1 mph N/A   Overcast
3:35 AM 69.8 °F - 66.2 °F 88% 29.90 in 10.0 mi North 10.4 mph - N/A   Overcast
3:55 AM 68.0 °F - 66.2 °F 94% 29.90 in 10.0 mi North 9.2 mph - N/A   Overcast
4:15 AM 68.0 °F - 66.2 °F 94% 29.90 in 10.0 mi NNE 11.5 mph 18.4 mph N/A   Overcast
4:35 AM 68.0 °F - 64.4 °F 88% 29.90 in 10.0 mi North 10.4 mph 19.6 mph N/A   Overcast
4:55 AM 68.0 °F - 64.4 °F 88% 29.89 in 10.0 mi NNE 11.5 mph 19.6 mph N/A   Overcast
5:15 AM 68.0 °F - 64.4 °F 88% 29.90 in 10.0 mi NNE 6.9 mph 16.1 mph N/A   Overcast
5:35 AM 68.0 °F - 64.4 °F 88% 29.90 in 10.0 mi NNE 12.7 mph 20.7 mph N/A   Overcast
5:55 AM 68.0 °F - 64.4 °F 88% 29.91 in 10.0 mi NNE 12.7 mph 19.6 mph N/A   Overcast
6:15 AM 68.0 °F - 64.4 °F 88% 29.92 in 10.0 mi NNE 13.8 mph 21.9 mph N/A   Overcast
6:35 AM 66.2 °F - 62.6 °F 88% 29.93 in 10.0 mi NNE 9.2 mph 19.6 mph N/A   Overcast
6:55 AM 66.2 °F - 62.6 °F 88% 29.93 in 10.0 mi North 10.4 mph 19.6 mph N/A   Overcast
7:15 AM 64.4 °F - 62.6 °F 94% 29.93 in 10.0 mi North 11.5 mph 19.6 mph N/A   Overcast
7:35 AM 64.4 °F - 60.8 °F 88% 29.93 in 10.0 mi North 12.7 mph 20.7 mph N/A   Mostly Cloudy
7:55 AM 64.4 °F - 60.8 °F 88% 29.93 in 10.0 mi North 10.4 mph 21.9 mph N/A   Scattered Clouds
8:15 AM 64.4 °F - 60.8 °F 88% 29.94 in 10.0 mi North 12.7 mph 19.6 mph N/A   Clear
8:35 AM 64.4 °F - 60.8 °F 88% 29.94 in 10.0 mi North 10.4 mph 19.6 mph N/A   Clear
8:55 AM 64.4 °F - 60.8 °F 88% 29.95 in 10.0 mi North 11.5 mph 18.4 mph N/A   Clear
9:15 AM 64.4 °F - 60.8 °F 88% 29.95 in 10.0 mi North 11.5 mph 16.1 mph N/A   Clear
9:35 AM 68.0 °F - 60.8 °F 78% 29.96 in 10.0 mi North 6.9 mph 18.4 mph N/A   Clear
9:55 AM 68.0 °F - 60.8 °F 78% 29.97 in 10.0 mi NNE 8.1 mph 17.3 mph N/A   Scattered Clouds
10:15 AM 69.8 °F - 60.8 °F 73% 29.97 in 10.0 mi North 11.5 mph 16.1 mph N/A   Clear
10:35 AM 69.8 °F - 60.8 °F 73% 29.97 in 10.0 mi North 11.5 mph 20.7 mph N/A   Clear
10:55 AM 71.6 °F - 60.8 °F 69% 29.97 in 10.0 mi North 9.2 mph 19.6 mph N/A   Scattered Clouds
11:15 AM 71.6 °F - 60.8 °F 69% 29.98 in 10.0 mi North 11.5 mph 17.3 mph N/A   Scattered Clouds
11:35 AM 71.6 °F - 60.8 °F 69% 29.97 in 10.0 mi North 11.5 mph 16.1 mph N/A   Mostly Cloudy
11:55 AM 71.6 °F - 60.8 °F 69% 29.97 in 10.0 mi North 12.7 mph 17.3 mph N/A   Overcast
12:15 PM 73.4 °F - 60.8 °F 65% 29.97 in 10.0 mi North 13.8 mph 17.3 mph N/A   Mostly Cloudy
12:35 PM 77.0 °F - 60.8 °F 57% 29.96 in 10.0 mi NNE 8.1 mph 17.3 mph N/A   Scattered Clouds
12:55 PM 77.0 °F - 59.0 °F 54% 29.96 in 10.0 mi NE 10.4 mph 20.7 mph N/A   Scattered Clouds
1:15 PM 78.8 °F - 59.0 °F 51% 29.95 in 10.0 mi NNE 6.9 mph 18.4 mph N/A   Clear
1:35 PM 78.8 °F - 57.2 °F 47% 29.94 in 10.0 mi North 11.5 mph 18.4 mph N/A   Clear
1:55 PM 80.6 °F 80.5 °F 55.4 °F 42% 29.93 in 10.0 mi North 15.0 mph 21.9 mph N/A   Clear
2:15 PM 80.6 °F 80.3 °F 53.6 °F 39% 29.92 in 10.0 mi NNE 11.5 mph 21.9 mph N/A   Clear
2:35 PM 80.6 °F - 50.0 °F 34% 29.91 in 10.0 mi NE 11.5 mph 19.6 mph N/A   Clear
2:55 PM 80.6 °F - 50.0 °F 34% 29.90 in 10.0 mi NNE 8.1 mph 23.0 mph N/A   Clear
3:15 PM 82.4 °F - 46.4 °F 28% 29.90 in 10.0 mi NE 15.0 mph 20.7 mph N/A   Clear
3:35 PM 82.4 °F - 46.4 °F 28% 29.89 in 10.0 mi North 12.7 mph 18.4 mph N/A   Clear
3:55 PM 82.4 °F - 48.2 °F 30% 29.89 in 10.0 mi North 11.5 mph 21.9 mph N/A   Clear
4:15 PM 82.4 °F - 48.2 °F 30% 29.88 in 10.0 mi NE 10.4 mph 18.4 mph N/A   Clear
4:35 PM 82.4 °F - 46.4 °F 28% 29.88 in 10.0 mi NE 11.5 mph 17.3 mph N/A   Clear
4:55 PM 82.4 °F - 46.4 °F 28% 29.88 in 10.0 mi North 10.4 mph 18.4 mph N/A   Clear
5:15 PM 80.6 °F - 46.4 °F 30% 29.88 in 10.0 mi NE 9.2 mph 18.4 mph N/A   Clear
5:35 PM 80.6 °F - 44.6 °F 28% 29.88 in 10.0 mi NE 12.7 mph - N/A   Clear
5:55 PM 80.6 °F - 46.4 °F 30% 29.88 in 10.0 mi NE 8.1 mph 16.1 mph N/A   Clear
6:15 PM 80.6 °F - 44.6 °F 28% 29.88 in 10.0 mi NNE 6.9 mph - N/A   Clear
6:35 PM 78.8 °F - 44.6 °F 30% 29.88 in 10.0 mi NNE 5.8 mph - N/A   Clear
6:55 PM 77.0 °F - 42.8 °F 29% 29.88 in 10.0 mi NNE 8.1 mph - N/A   Clear
7:15 PM 75.2 °F - 42.8 °F 31% 29.88 in 10.0 mi NE 4.6 mph - N/A   Clear
7:35 PM 73.4 °F - 44.6 °F 36% 29.88 in 10.0 mi NNE 4.6 mph - N/A   Clear
7:55 PM 71.6 °F - 42.8 °F 35% 29.88 in 10.0 mi NNE 5.8 mph - N/A   Clear
8:15 PM 71.6 °F - 44.6 °F 38% 29.88 in 10.0 mi NNE 6.9 mph - N/A   Clear
8:35 PM 69.8 °F - 42.8 °F 38% 29.89 in 10.0 mi NNE 6.9 mph - N/A   Clear
8:55 PM 69.8 °F - 42.8 °F 38% 29.89 in 10.0 mi North 6.9 mph - N/A   Clear
9:15 PM 69.8 °F - 42.8 °F 38% 29.90 in 10.0 mi North 6.9 mph - N/A   Clear
9:35 PM 69.8 °F - 44.6 °F 40% 29.90 in 10.0 mi North 6.9 mph - N/A   Clear
9:55 PM 68.0 °F - 44.6 °F 43% 29.91 in 10.0 mi North 4.6 mph - N/A   Clear
10:15 PM 68.0 °F - 44.6 °F 43% 29.92 in 10.0 mi North 5.8 mph - N/A   Clear
10:35 PM 68.0 °F - 44.6 °F 43% 29.92 in 10.0 mi North 6.9 mph - N/A   Clear
10:55 PM 68.0 °F - 46.4 °F 46% 29.91 in 10.0 mi NNE 5.8 mph - N/A   Clear
11:15 PM 68.0 °F - 44.6 °F 43% 29.92 in 10.0 mi NNE 5.8 mph - N/A   Clear
11:35 PM 66.2 °F - 44.6 °F 46% 29.92 in 10.0 mi NNE 6.9 mph - N/A   Clear
11:55 PM 66.2 °F - 44.6 °F 46% 29.92 in 10.0 mi NNE 5.8 mph - N/A   Clear